Theta_e
308 308 308 308 309 310 311 312 313 314 314 315 315 315 316 316 317 312 309 314 316 321 320 311 307 314 311 306 309 305 299 299 304 303 306 310 311 312 315 314 317 319 318 324 332
308 309 309 309 309 308 310 311 312 313 314 314 314 314 315 316 311 305 314 321 321 322 310 304 301 312 312 308 305 301 298 301 305 307 306 308 311 312 312 313 314 318 324 330 327
310 309 309 309 310 310 309 309 311 312 313 314 314 313 314 314 302 303 321 323 320 320 311 305 303 305 310 308 303 301 297 304 304 305 306 306 309 313 312 310 314 316 321 322 325
310 310 310 310 310 310 311 310 309 310 313 313 313 313 313 309 289 304 317 322 323 316 310 304 302 299 300 305 307 298 303 306 305 305 305 304 310 310 313 314 317 320 325 324 323
310 310 310 310 311 311 311 311 311 309 309 313 313 313 308 300 298 311 315 317 317 313 306 300 300 300 297 300 306 303 304 305 304 304 305 306 306 307 310 317 318 321 324 325 325
310 310 310 310 310 311 311 311 311 311 310 309 313 313 303 292 308 313 313 315 313 311 304 301 300 304 301 299 303 306 305 304 302 302 304 302 302 305 308 312 317 320 322 325 326
310 310 310 310 310 311 311 311 311 311 309 309 312 309 301 298 310 310 311 313 313 310 301 302 304 303 304 299 302 302 301 302 301 301 302 304 299 300 307 313 315 319 322 324 326
310 310 310 310 310 310 311 310 310 310 310 310 312 306 294 307 312 309 311 309 312 311 305 305 307 304 303 303 300 297 298 293 301 301 302 302 296 302 306 309 310 317 321 322 324
309 309 309 309 309 309 310 309 310 310 311 310 306 302 294 308 304 309 310 305 308 308 307 305 306 301 302 297 294 296 291 293 295 300 301 300 297 302 301 305 305 313 319 321 323
309 309 309 309 309 309 308 307 308 308 304 307 306 297 300 297 303 308 310 309 304 306 302 301 298 294 297 295 287 290 291 292 292 296 298 297 297 299 301 301 304 306 315 319 322
308 309 309 309 309 309 305 302 295 293 297 292 293 292 295 303 306 305 307 306 304 301 292 299 291 287 291 295 296 295 293 292 294 296 297 296 296 299 301 302 302 303 304 310 318
309 309 309 309 309 306 303 294 294 296 289 296 296 296 298 301 294 300 307 299 297 291 296 293 287 292 294 295 294 294 292 291 291 294 296 295 295 298 300 301 303 304 305 304 306
307 307 308 308 307 301 297 295 302 301 289 291 295 296 299 300 294 295 301 300 294 291 292 288 289 293 294 293 291 291 291 291 291 292 293 292 291 293 297 299 299 302 306 307 306
307 307 307 307 299 298 293 300 303 302 283 284 290 294 298 299 293 301 303 298 294 290 293 289 292 291 290 291 293 288 292 292 291 290 286 290 286 290 293 294 295 298 301 303 305
307 307 307 304 299 294 296 301 302 297 272 285 290 300 298 293 294 295 300 296 288 291 291 288 289 290 288 288 293 290 294 292 291 289 287 288 286 291 290 290 294 295 298 299 301
307 307 306 301 300 297 301 301 296 281 271 281 289 287 288 292 292 295 293 296 294 292 293 291 294 292 291 292 293 294 291 290 290 288 282 286 286 289 292 292 294 297 298 298 298
307 306 303 301 295 301 300 292 282 273 280 280 282 286 286 287 289 290 289 287 285 283 285 287 288 292 293 289 293 291 287 280 279 279 279 285 283 288 293 294 294 294 294 294 296
304 302 300 299 301 301 294 286 273 271 276 284 284 285 284 286 287 289 288 286 287 286 285 284 281 288 292 290 288 289 286 281 274 276 279 283 281 286 294 293 295 294 295 296 297
301 299 299 300 300 298 289 277 275 275 281 281 283 280 282 284 286 286 287 287 289 288 283 285 284 291 290 292 292 288 284 288 280 275 280 283 286 290 293 293 292 293 293 294 296
297 295 295 299 297 293 285 278 276 279 283 284 276 281 277 281 282 283 285 289 289 292 293 287 282 287 289 293 293 290 291 282 283 276 274 279 280 285 287 290 290 290 292 294 294
294 290 295 298 295 288 279 275 275 283 285 282 279 278 281 282 281 282 283 287 288 289 294 291 287 284 287 286 286 287 285 286 286 283 277 276 281 289 290 289 289 291 290 292 294
291 284 296 296 285 279 279 275 282 282 285 282 284 282 282 283 282 282 282 286 289 290 288 292 287 283 284 289 291 291 287 287 281 280 282 280 281 287 288 288 288 290 290 292 294
284 285 295 294 280 279 275 276 279 280 282 282 281 284 285 282 280 284 285 289 290 288 285 288 285 280 281 286 289 287 289 290 289 285 282 279 283 287 288 289 289 290 291 293 296
286 282 286 289 283 280 276 274 276 282 283 284 283 285 282 280 283 280 282 287 290 289 289 290 286 283 279 282 286 284 286 288 288 283 283 283 286 285 286 288 289 290 291 293 297
284 282 280 279 280 281 280 275 274 277 282 284 281 281 280 276 278 279 282 284 287 290 289 287 282 284 285 285 286 286 286 287 286 287 283 286 286 290 289 290 291 291 290 292 296
284 282 282 279 279 279 280 277 276 279 280 279 280 282 282 277 279 277 281 283 282 286 286 288 281 282 279 284 286 284 286 287 287 288 287 288 287 292 293 292 292 293 293 291 294
290 290 288 282 280 278 278 279 277 281 282 284 283 282 280 282 285 286 286 286 286 284 283 283 281 280 277 281 281 279 285 286 287 289 288 284 289 293 292 293 290 290 293 294 294
Wind_Speed
12 13 14 16 17 17 18 19 19 19 19 19 18 20 19 20 21 11 21 13 11 15 14 11 11 5 5 1 1 3 5 10 13 9 5 4 6 2 2 6 4 6 1 3 21
11 12 13 15 16 16 18 20 19 19 19 19 18 20 21 18 18 21 16 20 22 17 7 11 12 11 6 8 3 4 4 11 6 8 5 2 6 7 7 8 7 7 6 13 19
11 12 13 14 15 17 18 19 21 20 19 20 19 19 19 13 12 23 14 28 23 19 17 5 12 12 11 8 8 5 7 13 11 9 4 2 4 5 7 9 10 14 14 16 16
13 14 15 16 16 17 19 19 21 22 20 20 19 19 18 7 9 3 18 15 28 21 16 12 10 16 10 13 16 9 14 20 18 8 4 4 3 5 10 2 4 5 18 19 19
14 14 16 18 18 19 20 21 21 21 22 21 20 19 10 9 9 14 20 19 16 23 21 19 16 19 15 10 14 14 17 18 18 8 7 3 6 4 7 9 2 8 17 19 18
14 15 16 17 19 19 20 22 23 22 21 22 19 17 9 7 2 3 13 14 12 24 22 20 11 15 12 8 19 16 15 13 9 13 7 7 5 4 3 4 6 11 15 16 20
13 15 16 17 18 19 21 23 25 25 22 20 18 7 8 10 6 12 12 8 6 20 18 16 9 13 9 9 8 7 17 15 14 8 7 6 9 10 7 4 8 10 12 14 16
13 14 15 17 18 19 22 25 28 27 22 16 15 4 7 5 4 10 9 11 8 14 11 11 6 5 5 7 5 13 9 17 20 11 7 12 18 14 11 8 9 10 11 13 16
13 14 15 17 18 19 22 26 27 19 12 11 6 5 6 3 4 11 7 4 7 10 8 10 9 7 4 11 8 16 16 23 14 11 11 16 12 13 2 11 13 10 11 11 12
13 14 16 16 18 19 22 27 16 8 12 3 1 4 1 4 4 2 4 6 4 11 10 13 10 11 12 16 20 18 22 10 18 9 13 13 16 5 4 7 11 11 8 10 12
12 14 16 17 18 18 13 5 7 3 11 6 17 13 13 7 3 1 3 0 3 13 11 15 12 20 27 24 15 15 14 18 7 6 9 19 18 17 10 6 7 11 10 10 12
12 13 15 17 15 12 5 6 8 9 12 13 11 9 12 2 5 6 6 2 9 15 11 10 19 16 15 14 14 14 16 14 3 2 5 4 17 15 13 11 15 12 10 11 12
12 13 15 15 10 4 3 7 9 7 5 9 4 5 5 1 3 4 2 4 10 14 15 13 1 11 14 13 13 8 14 11 6 5 2 3 8 11 11 13 8 13 16 15 14
11 12 14 17 1 4 1 9 9 3 3 10 9 5 5 5 2 3 3 3 3 15 13 4 3 16 16 15 14 11 3 8 12 8 6 1 8 10 12 14 12 13 14 16 16
10 11 11 7 4 4 7 11 8 2 4 15 7 4 10 4 3 7 14 6 2 6 7 6 11 14 14 14 14 8 9 5 6 6 1 5 7 13 4 10 13 13 16 16 14
10 10 6 2 2 3 11 7 1 2 5 7 8 15 13 4 2 3 3 5 5 3 2 2 1 7 5 3 10 13 9 6 5 2 8 8 10 12 11 6 5 8 7 7 7
7 4 3 1 5 11 8 2 2 5 7 12 11 15 12 5 2 2 2 4 4 4 5 3 2 1 6 10 8 3 13 4 3 6 14 4 8 15 4 4 3 3 2 4 3
9 4 4 3 6 7 3 3 8 2 4 9 10 16 5 11 7 4 2 3 5 5 5 7 6 7 7 5 9 12 12 5 10 8 8 2 11 6 6 1 7 6 8 7 8
4 2 2 7 8 3 2 6 1 4 5 8 11 6 5 7 7 8 3 2 4 6 4 1 4 1 1 2 12 7 7 3 6 2 2 7 4 9 9 9 4 5 4 8 6
2 2 3 10 7 3 4 3 1 3 5 4 5 6 6 10 10 12 9 7 8 6 8 3 4 3 4 1 4 13 8 4 1 5 6 6 5 5 3 12 2 1 3 3 3
2 1 4 8 3 4 3 2 3 4 5 4 4 3 5 6 4 5 9 6 11 10 5 2 2 4 5 5 9 6 7 4 3 5 7 8 7 5 6 3 6 6 4 5 5
2 1 4 5 3 2 2 4 3 3 2 3 2 4 4 7 3 4 5 5 10 8 4 3 2 3 2 1 4 8 5 7 6 8 7 5 8 3 2 2 4 6 4 5 2
2 1 2 2 2 2 1 1 3 2 1 1 3 3 4 5 4 6 5 1 7 6 6 6 2 1 1 1 1 7 11 17 10 2 11 7 5 2 1 1 1 2 0 1 2
2 0 2 2 2 3 2 2 2 2 3 2 3 3 4 4 3 5 8 4 7 2 4 7 2 3 4 4 3 6 11 15 17 6 12 16 14 0 3 3 2 2 1 2 4
2 1 1 2 2 3 2 2 1 2 2 1 2 1 3 3 6 3 4 8 5 3 3 3 3 3 2 7 9 8 10 16 20 24 12 23 17 17 8 3 1 1 1 2 4
5 4 2 3 3 4 2 4 4 3 4 3 3 2 1 2 4 5 7 3 3 5 7 2 2 1 4 2 5 11 11 9 17 20 20 22 19 4 8 7 8 5 4 4 6
1 1 2 5 4 4 4 5 7 5 3 4 4 2 6 11 7 6 9 11 10 6 3 2 3 2 3 3 4 6 13 17 13 15 19 19 24 5 10 12 7 7 5 5 6
Wind_Direction
9 2 356 354 346 340 333 326 320 315 310 308 308 305 302 303 300 305 261 235 217 257 272 273 290 208 91 44 5 294 247 242 228 215 218 141 202 153 128 155 182 168 344 63 138
358 355 351 348 347 341 336 330 326 316 310 307 306 304 302 303 286 275 273 241 236 242 264 221 238 186 168 167 150 250 230 247 276 242 247 164 223 165 185 176 189 169 86 133 149
340 337 336 334 338 337 336 334 328 323 313 307 300 307 301 299 289 280 247 223 227 229 235 251 227 206 190 159 157 179 241 267 275 267 252 237 197 194 212 206 208 195 155 159 161
330 326 324 322 326 327 328 330 327 324 322 310 300 303 298 262 245 45 352 267 226 215 218 214 206 203 207 188 183 177 199 256 278 264 242 225 153 202 225 189 340 214 158 163 173
332 326 319 318 321 321 320 321 320 320 320 317 303 310 316 225 232 291 317 307 228 203 207 203 197 204 200 190 183 208 190 224 245 243 243 191 210 236 236 222 30 146 163 172 180
333 332 327 321 318 318 316 314 312 312 313 308 300 318 281 228 292 27 317 305 209 191 199 198 207 212 205 200 189 200 215 212 238 224 225 230 228 185 207 186 174 167 186 184 186
334 330 328 328 325 319 316 313 309 308 307 299 293 311 249 270 322 309 310 299 238 196 192 198 215 203 144 177 235 177 200 220 222 202 204 213 235 227 202 173 182 194 194 195 197
338 336 334 329 328 324 319 314 309 308 303 286 278 272 260 229 276 282 262 268 245 200 216 206 201 202 212 124 123 186 207 208 228 212 222 196 244 234 209 205 215 197 203 201 200
335 333 337 335 333 330 322 316 311 311 307 308 263 211 283 63 251 256 231 243 191 188 199 187 202 192 154 167 155 193 212 217 219 215 204 209 233 239 232 203 232 208 207 209 205
337 334 337 337 333 332 329 315 315 336 348 153 165 261 267 307 313 257 208 286 179 158 136 166 194 187 195 192 202 195 215 213 216 189 225 202 231 194 170 220 221 230 219 215 215
334 334 337 337 336 342 336 336 2 343 6 313 296 281 281 322 63 78 239 306 155 170 159 179 178 200 196 196 227 196 202 216 217 176 204 217 229 226 204 205 222 227 218 227 231
349 345 343 339 337 357 360 37 358 287 308 311 287 268 273 263 338 6 354 178 185 174 151 165 216 213 205 195 191 188 193 203 135 118 216 224 239 242 239 237 225 233 227 219 230
348 347 343 339 335 50 18 32 327 336 280 312 328 316 346 306 70 21 270 336 201 176 183 195 312 165 180 176 182 192 214 182 210 123 102 192 242 235 249 250 243 241 248 244 232
342 341 347 338 58 341 52 343 333 311 299 5 345 1 328 329 88 14 276 340 162 193 183 210 151 175 184 189 194 184 173 159 132 167 219 341 256 216 218 229 225 235 232 236 232
338 335 344 33 309 329 328 325 311 226 21 340 324 275 327 310 327 46 20 65 296 189 194 164 163 171 175 195 195 201 144 123 104 113 165 191 259 246 136 226 225 219 228 229 238
327 325 342 71 280 326 318 316 200 302 348 342 322 347 355 335 334 116 75 73 297 148 227 106 122 170 160 117 181 130 113 51 56 38 254 214 238 250 225 209 233 247 226 229 231
326 29 41 1 335 320 317 350 35 59 340 330 329 336 343 315 251 214 112 100 45 318 169 94 142 325 145 110 149 174 157 135 171 207 237 134 233 247 240 248 198 287 176 170 198
44 31 26 58 329 325 347 40 57 82 329 306 318 319 11 347 3 333 123 97 118 192 252 160 173 195 167 177 181 187 185 168 195 201 206 132 237 215 245 241 259 262 275 268 267
12 17 22 347 338 338 24 52 149 194 326 327 324 341 344 354 338 347 37 347 156 157 315 178 106 240 166 151 159 178 208 102 107 49 193 199 255 252 281 269 212 232 247 256 247
39 7 7 332 335 33 63 97 224 239 326 297 17 357 334 337 7 7 6 9 356 194 228 29 106 30 291 83 108 207 143 169 162 214 240 208 270 263 240 250 10 125 265 273 206
52 7 336 341 358 41 72 151 273 249 304 333 6 315 304 331 359 10 359 47 350 328 258 178 319 63 131 209 179 150 190 199 235 238 250 263 252 221 246 338 313 308 296 302 217
85 352 347 339 37 54 100 179 278 320 325 347 302 274 301 322 337 357 21 348 344 324 334 33 21 206 97 47 222 212 229 200 204 199 237 291 251 132 157 339 311 320 285 303 254
78 332 327 330 99 91 106 263 257 230 288 353 322 338 325 310 312 25 358 314 336 25 353 338 194 171 86 267 200 220 203 201 211 16 222 221 242 58 212 282 2 355 75 179 169
123 200 17 40 100 116 114 71 316 272 263 280 310 321 315 324 317 331 348 358 349 353 11 327 226 236 265 22 339 213 214 212 209 206 223 235 244 178 212 168 72 69 127 186 202
38 136 352 156 173 125 169 129 312 255 240 235 149 198 337 328 326 0 343 331 347 18 338 347 319 337 336 346 274 263 247 221 216 231 223 252 243 238 205 167 129 134 316 184 185
142 153 173 134 144 168 197 217 207 238 208 201 203 165 293 264 289 300 336 345 314 337 342 46 292 306 263 259 234 236 251 262 233 242 249 257 265 275 271 258 248 208 207 215 187
148 106 144 164 174 181 217 207 204 194 216 240 188 243 268 276 268 271 276 269 262 284 291 299 311 282 251 323 284 240 214 216 235 237 237 251 251 226 239 246 240 225 236 242 220